Wind_Speed
12 12 12 13 13 13 12 13 13 12 11 10 9 8 8 7 7 7 7 7 8 8 8 7 8 8 9 9 9 9 9 8 8 7 7 6 5 5 4 4 3 3 4 4 4 4 3 3 2
13 14 13 12 13 13 13 13 13 12 12 11 10 9 8 7 7 7 7 7 8 8 8 8 8 8 9 9 10 9 8 8 8 8 7 6 6 5 5 5 4 4 4 4 4 4 4 3 2
12 13 13 14 13 14 14 14 14 13 12 12 11 10 8 8 8 7 7 7 7 8 8 8 8 8 9 9 9 9 9 8 8 8 7 7 6 5 6 5 4 4 4 4 4 4 4 4 3
12 13 13 14 14 15 14 14 14 14 13 12 11 11 10 9 7 7 7 7 8 8 8 8 8 8 8 9 9 8 9 8 8 7 7 6 6 6 6 6 5 5 5 5 4 4 3 3 3
12 13 14 15 15 15 15 14 14 14 14 12 11 11 11 9 8 8 8 8 8 8 8 9 9 9 9 9 9 8 9 8 8 7 7 6 6 6 6 6 6 6 5 5 4 4 3 3 3
12 13 14 15 15 15 14 15 15 15 14 13 11 11 11 10 9 8 8 9 8 9 9 9 9 9 9 9 9 8 8 8 8 7 6 6 6 6 6 6 7 7 6 5 4 4 3 3 3
12 13 13 14 14 14 14 14 15 15 14 13 12 11 10 10 9 8 8 8 8 8 9 9 9 9 9 9 8 8 7 7 7 7 6 6 7 7 6 6 6 6 6 5 4 4 3 3 3
10 11 12 14 15 14 14 14 14 14 14 13 12 11 11 10 9 8 8 8 7 8 8 9 9 8 8 8 8 7 7 6 6 6 7 7 7 7 6 6 6 6 5 5 5 4 4 3 3
9 11 12 14 15 14 13 14 14 14 14 13 12 11 11 11 10 9 8 8 8 8 8 8 8 8 7 7 7 6 6 6 5 5 6 6 6 6 5 5 5 5 5 5 5 5 4 4 4
9 10 12 13 13 13 13 13 14 14 14 13 13 11 10 10 10 9 9 8 8 8 8 8 8 7 7 6 6 5 5 5 5 5 5 5 5 5 5 4 4 5 5 5 5 5 4 4 4
7 9 10 11 12 12 12 13 12 12 13 13 12 11 10 10 10 10 10 8 8 8 8 8 7 6 6 6 6 6 6 4 4 5 5 5 5 4 4 4 3 4 4 5 5 4 4 4 4
5 7 8 10 11 11 12 12 12 11 12 12 11 11 11 10 10 10 10 9 8 8 8 7 6 5 6 5 5 6 6 5 5 5 4 4 4 4 4 4 4 4 4 4 4 4 4 4 3
5 6 7 9 10 11 12 12 11 11 11 11 11 11 10 10 9 10 9 8 8 8 8 7 6 5 5 4 5 5 5 5 5 5 4 4 3 3 3 3 3 3 3 3 3 3 3 3 3
4 5 6 8 9 10 11 11 10 10 10 11 11 10 10 10 9 9 10 10 9 8 7 7 6 6 5 5 5 5 5 5 5 5 4 4 3 3 2 3 2 3 2 2 2 3 3 3 3
4 4 5 6 7 8 9 10 10 10 9 10 10 10 10 10 9 9 9 9 9 8 7 6 6 6 5 6 5 5 5 5 4 4 4 3 3 3 2 2 2 1 1 1 2 2 3 3 3
4 4 4 4 5 6 7 9 9 9 8 9 9 10 10 10 10 9 9 8 8 7 6 6 5 5 5 5 5 5 4 4 3 3 3 2 2 2 2 2 1 1 1 1 2 3 3 3 3
4 4 3 3 4 4 4 6 7 7 7 7 8 9 10 10 10 9 8 8 7 7 6 6 5 5 4 4 4 4 3 2 2 1 1 1 1 1 1 1 2 2 2 2 3 4 5 4 4
5 4 3 2 2 2 2 4 5 5 6 6 6 7 9 9 9 9 8 7 6 6 6 6 5 4 4 3 3 2 2 1 1 0 0 1 2 1 1 2 2 2 3 3 4 5 6 6 5
6 5 4 2 2 2 1 2 3 4 4 5 5 6 7 7 8 8 8 7 6 6 6 6 5 4 4 3 2 1 1 1 2 1 0 1 2 2 3 3 3 4 4 4 5 6 6 6 6
8 7 5 4 4 4 2 2 1 1 2 3 3 4 4 5 6 7 7 6 6 6 5 5 5 3 3 3 3 2 1 1 2 2 1 2 3 3 3 4 4 5 5 5 6 6 7 7 7
8 7 6 6 5 4 4 2 1 1 1 2 2 2 3 3 4 5 6 5 5 5 5 5 5 4 3 3 3 3 2 2 2 2 2 2 3 4 4 5 6 6 7 7 8 8 8 9 9
9 8 8 8 8 6 5 4 3 3 2 1 2 2 3 2 3 3 4 4 4 4 4 5 4 4 3 3 3 3 3 3 3 3 3 3 4 5 6 6 7 7 8 8 9 10 10 10 10
10 9 10 10 9 8 7 6 5 5 4 3 3 3 3 2 1 2 3 4 4 4 5 5 4 4 3 3 2 2 2 2 3 4 4 5 6 6 7 7 8 8 9 10 10 11 11 11 12
13 12 11 12 11 10 8 8 7 7 5 5 5 4 4 3 1 1 2 3 4 5 5 5 5 4 4 5 5 4 4 4 4 5 6 6 7 8 8 8 9 9 10 11 12 12 13 13 13
15 14 14 13 13 11 10 10 9 8 7 6 6 6 6 5 3 2 3 4 4 4 5 5 5 5 5 5 5 5 5 5 6 7 7 8 9 9 9 10 10 10 12 13 13 13 14 14 15
17 16 15 14 14 13 11 11 9 8 7 8 8 7 7 5 4 4 4 4 4 5 5 6 7 6 5 5 6 6 6 7 7 8 8 9 9 10 10 11 12 12 13 13 14 14 15 15 16
18 17 16 16 14 14 13 11 10 9 9 9 9 8 7 7 6 5 5 5 5 6 6 7 7 7 6 6 6 6 7 8 8 9 9 10 11 12 12 13 14 14 14 15 16 16 16 16 17
19 18 17 17 16 16 14 12 10 10 10 10 10 10 9 8 8 7 7 6 7 8 8 8 7 7 7 7 8 8 8 9 9 10 11 12 13 13 14 15 15 16 16 17 17 17 17 17 18
19 19 19 19 19 18 16 13 12 12 12 12 12 12 11 9 9 9 9 8 9 9 9 9 9 9 9 9 10 10 10 11 11 11 12 13 14 15 16 16 17 17 18 18 18 18 19 19 19
20 20 20 20 20 19 18 16 14 14 14 14 13 12 12 11 11 11 10 9 10 11 10 10 11 11 12 12 12 12 12 13 13 14 15 15 16 17 17 18 18 19 19 20 20 20 20 21 21
Wind_Direction
65 65 67 65 69 66 64 63 63 62 59 59 58 55 54 62 71 75 81 85 89 95 102 101 100 97 97 98 93 92 91 90 88 90 89 86 78 83 90 83 73 65 59 54 59 70 80 75 89
65 62 64 65 63 63 65 65 63 60 58 55 56 56 57 68 73 79 83 89 93 98 104 107 106 101 98 98 94 93 90 90 91 91 88 87 77 73 76 75 71 67 62 58 60 68 74 73 83
62 60 61 63 66 65 68 67 63 61 58 56 56 56 61 70 74 77 85 94 100 105 112 113 110 105 103 99 95 92 90 90 90 87 86 84 76 69 69 65 65 61 64 66 73 70 69 66 74
65 65 63 63 67 67 67 65 63 63 59 58 57 57 60 70 75 79 89 96 106 107 111 111 110 109 106 102 98 95 93 89 88 87 86 79 72 68 74 68 59 58 62 66 70 70 68 73 79
68 69 67 68 69 66 65 62 61 58 56 56 56 58 58 66 73 84 92 98 103 105 107 107 108 106 106 104 100 99 94 91 92 91 87 77 72 76 73 69 66 68 67 65 70 74 71 74 80
70 70 67 65 65 63 62 60 59 57 54 54 55 56 58 64 74 84 96 99 101 103 103 104 106 106 102 104 101 100 95 90 89 88 83 77 73 78 77 71 69 68 66 68 66 71 70 72 81
73 70 68 64 61 61 61 63 61 58 53 52 55 60 62 64 73 81 96 100 102 105 106 106 107 107 101 100 101 102 98 90 84 81 76 84 82 79 76 72 66 61 60 62 64 70 67 68 72
73 72 68 63 60 59 62 63 61 58 54 53 55 60 65 67 69 82 97 101 100 101 103 105 105 105 101 99 102 103 98 90 84 80 77 86 82 77 75 69 64 59 57 64 66 64 64 65 72
76 69 69 65 60 58 61 61 59 60 56 55 59 65 68 68 68 78 91 93 95 98 100 100 97 96 95 98 104 106 99 94 88 85 83 84 81 81 82 75 67 61 59 69 64 60 59 63 76
76 71 72 68 63 59 61 61 61 61 60 60 61 64 68 69 70 72 82 86 89 93 97 97 95 97 94 93 96 102 99 100 99 97 95 93 89 87 85 79 69 63 67 74 64 64 63 68 77
80 77 77 72 69 63 62 62 60 60 61 62 61 63 68 73 74 73 75 83 88 94 95 96 93 91 92 93 92 95 98 102 103 101 98 100 95 90 88 88 85 73 73 79 72 67 63 60 61
94 89 82 79 73 68 65 63 60 60 62 63 63 64 69 74 73 72 72 76 83 86 90 94 93 89 92 93 93 94 95 99 101 98 97 95 94 93 92 92 87 80 73 75 71 66 63 52 50
97 92 86 83 79 74 68 63 58 60 62 62 63 64 66 69 71 69 71 74 79 84 86 87 85 87 95 91 97 91 92 97 101 102 99 94 88 94 96 89 86 85 74 69 63 49 47 44 45
120 106 95 84 82 76 68 64 59 61 62 64 63 63 62 64 66 68 69 73 77 83 84 82 81 81 90 93 95 93 97 99 102 103 93 95 89 87 95 91 82 90 73 49 43 29 13 11 18
153 126 113 91 86 79 73 67 61 58 58 58 60 59 58 58 60 65 67 70 74 77 81 81 79 80 85 90 87 88 93 97 102 104 95 89 88 93 86 91 86 85 47 2 352 343 334 332 338
173 151 126 107 98 85 76 73 69 59 54 57 60 60 61 61 61 62 64 65 67 71 74 80 81 87 88 85 87 90 87 93 103 108 99 88 92 92 78 60 56 49 21 353 340 332 324 321 321
189 170 149 123 111 98 85 75 69 56 50 55 61 63 64 62 59 57 59 59 59 62 66 75 85 92 89 89 88 88 87 93 90 91 94 90 89 80 50 15 9 1 353 345 339 337 330 324 315
211 200 188 164 151 135 95 76 77 72 57 51 56 64 64 60 57 57 55 51 51 54 61 67 73 79 83 78 81 96 92 71 32 357 38 12 10 359 344 318 321 323 324 326 331 330 329 326 319
221 223 219 211 220 229 172 100 84 78 62 49 51 62 64 57 56 53 51 49 51 53 53 56 58 65 66 59 50 72 71 340 318 321 319 323 340 323 320 314 315 320 319 322 323 323 322 318 313
225 232 234 231 233 237 210 152 125 86 68 63 55 58 63 56 55 49 44 44 42 46 45 49 49 55 41 30 28 37 32 310 286 288 306 312 320 319 315 317 315 314 313 312 313 313 314 310 306
224 232 241 240 233 232 224 206 208 195 108 56 26 23 53 66 63 54 44 40 44 45 41 35 36 34 37 41 33 51 35 358 343 309 308 317 312 319 320 316 310 312 313 314 314 310 308 305 301
225 229 242 242 239 240 236 250 247 254 244 270 333 344 0 19 59 57 41 40 47 43 31 22 25 22 30 47 45 39 38 2 344 324 319 314 314 314 314 311 308 307 308 309 309 309 304 300 299
226 231 241 245 243 242 237 250 252 254 255 254 277 309 337 357 32 42 36 39 34 25 17 11 5 355 354 355 6 -0 355 350 339 324 318 315 316 315 315 310 302 302 303 308 309 308 302 298 298
229 233 239 243 244 246 245 251 254 253 258 263 275 284 289 293 289 310 348 4 11 8 5 3 353 341 333 333 334 336 339 333 322 316 316 314 313 311 309 308 305 302 303 306 308 306 303 301 299
234 236 240 244 245 247 252 256 261 263 266 273 282 282 284 276 269 284 294 312 330 343 345 343 341 335 332 333 336 333 327 321 318 314 313 312 312 311 310 311 310 306 305 304 305 304 304 305 303
235 239 242 248 249 252 253 257 263 267 272 275 279 281 273 269 259 271 284 295 311 326 331 331 329 323 319 327 327 323 319 316 315 313 310 311 313 313 308 307 307 306 306 306 305 304 302 302 301
234 236 240 246 250 256 256 258 262 272 275 275 275 278 273 268 264 271 271 279 302 314 319 325 323 320 317 318 320 323 322 317 313 311 308 308 310 311 309 306 305 304 304 304 303 302 302 301 301
235 235 239 245 251 256 257 261 266 268 272 273 273 273 275 271 273 275 272 277 296 307 309 316 320 317 316 312 312 313 311 310 309 309 309 310 309 307 306 303 301 300 301 303 304 304 303 301 300
234 235 240 245 251 258 262 264 265 268 271 273 273 275 274 270 272 275 276 280 291 300 305 302 303 308 308 305 305 306 305 306 307 306 306 306 306 305 303 303 301 300 300 301 302 302 301 300 299
237 236 241 246 251 256 262 266 265 269 273 272 271 272 271 270 272 271 272 279 290 295 298 299 300 300 302 301 300 301 300 300 301 302 301 302 302 301 300 301 300 299 299 299 299 299 299 298 297
Height
5879 5878 5878 5879 5878 5876 5874 5874 5873 5872 5872 5871 5870 5870 5870 5870 5871 5873 5871 5869 5869 5870 5870 5870 5870 5871 5871 5871 5872 5872 5872 5873 5873 5873 5874 5874 5875 5875 5875 5875 5876 5876 5876 5876 5876 5876 5876 5876 5877
5881 5880 5881 5881 5879 5877 5876 5875 5874 5873 5873 5872 5871 5871 5871 5870 5871 5871 5870 5870 5870 5871 5871 5871 5871 5872 5872 5872 5873 5873 5874 5874 5874 5874 5875 5875 5876 5876 5876 5876 5876 5876 5877 5877 5877 5876 5876 5877 5877
5883 5882 5883 5881 5880 5879 5878 5876 5875 5875 5874 5873 5873 5872 5872 5871 5871 5871 5871 5871 5872 5872 5872 5872 5872 5873 5873 5874 5874 5874 5875 5875 5875 5876 5876 5876 5876 5876 5876 5877 5877 5877 5877 5877 5877 5877 5877 5877 5878
5885 5885 5885 5883 5881 5880 5879 5878 5877 5876 5875 5875 5874 5874 5873 5872 5872 5872 5872 5872 5873 5873 5873 5873 5873 5874 5874 5875 5875 5875 5876 5876 5876 5877 5877 5877 5877 5877 5877 5878 5878 5878 5878 5878 5878 5878 5878 5878 5878
5887 5887 5886 5884 5883 5882 5881 5879 5878 5877 5877 5876 5875 5875 5874 5874 5873 5873 5873 5874 5874 5874 5874 5873 5874 5875 5875 5876 5876 5876 5877 5877 5878 5878 5878 5878 5878 5879 5878 5878 5878 5878 5878 5878 5878 5878 5878 5878 5878
5890 5888 5888 5886 5885 5884 5882 5881 5880 5879 5878 5877 5877 5876 5876 5875 5875 5875 5875 5875 5875 5875 5875 5874 5875 5876 5876 5876 5877 5878 5878 5878 5879 5879 5879 5879 5879 5879 5879 5879 5879 5879 5879 5879 5879 5879 5878 5878 5878
5892 5890 5889 5888 5887 5886 5885 5883 5882 5881 5880 5879 5879 5878 5877 5877 5877 5876 5876 5876 5876 5876 5876 5876 5876 5877 5877 5877 5878 5879 5879 5879 5880 5880 5880 5880 5880 5880 5880 5880 5880 5880 5880 5879 5879 5879 5879 5878 5878
5893 5892 5891 5889 5888 5888 5887 5885 5884 5883 5882 5881 5881 5880 5879 5879 5878 5878 5877 5877 5877 5877 5877 5877 5877 5878 5878 5879 5879 5880 5880 5880 5881 5881 5881 5881 5881 5881 5881 5881 5881 5881 5880 5880 5879 5879 5879 5878 5878
5894 5895 5892 5891 5890 5890 5888 5887 5886 5885 5884 5883 5882 5882 5881 5880 5880 5879 5879 5879 5878 5878 5879 5879 5879 5879 5880 5880 5880 5880 5881 5881 5881 5882 5882 5882 5882 5882 5882 5882 5882 5882 5881 5880 5880 5880 5879 5879 5878
5896 5896 5895 5894 5893 5892 5890 5889 5888 5887 5886 5885 5884 5883 5882 5882 5881 5881 5880 5880 5880 5880 5880 5880 5880 5880 5881 5881 5881 5881 5881 5881 5882 5882 5883 5883 5883 5883 5883 5883 5883 5882 5882 5882 5881 5881 5880 5879 5878
5897 5897 5896 5895 5894 5893 5892 5891 5890 5889 5888 5887 5886 5885 5884 5884 5883 5882 5882 5881 5881 5881 5881 5881 5881 5881 5881 5882 5882 5882 5882 5882 5882 5883 5883 5883 5884 5884 5883 5883 5883 5883 5882 5882 5882 5881 5881 5879 5878
5898 5898 5897 5897 5895 5895 5894 5893 5892 5891 5890 5889 5888 5887 5886 5885 5885 5884 5883 5883 5883 5882 5882 5882 5882 5882 5882 5882 5882 5882 5882 5882 5883 5883 5884 5884 5884 5884 5884 5884 5884 5883 5883 5883 5882 5882 5881 5880 5879
5899 5899 5898 5897 5897 5896 5895 5895 5894 5893 5892 5891 5890 5889 5888 5887 5886 5886 5885 5884 5884 5884 5883 5883 5883 5883 5883 5883 5883 5883 5883 5883 5884 5884 5884 5884 5885 5885 5885 5884 5884 5884 5883 5883 5883 5883 5882 5881 5881
5900 5900 5900 5899 5898 5897 5897 5896 5896 5895 5894 5893 5892 5891 5890 5889 5888 5887 5886 5885 5885 5885 5885 5884 5884 5884 5884 5884 5884 5884 5884 5884 5884 5884 5884 5885 5885 5885 5885 5885 5884 5884 5884 5883 5883 5883 5882 5882 5881
5900 5901 5901 5900 5900 5898 5898 5898 5897 5896 5895 5895 5894 5893 5892 5891 5890 5889 5888 5887 5886 5886 5886 5885 5885 5885 5885 5885 5885 5884 5884 5884 5885 5885 5885 5885 5885 5885 5885 5885 5884 5884 5884 5883 5883 5883 5882 5882 5881
5901 5902 5901 5901 5900 5900 5901 5899 5899 5898 5897 5896 5895 5894 5893 5892 5891 5890 5889 5888 5887 5887 5886 5886 5886 5886 5885 5885 5885 5885 5885 5885 5885 5885 5885 5885 5885 5885 5885 5885 5884 5884 5884 5883 5883 5883 5882 5882 5881
5902 5902 5901 5902 5901 5901 5901 5900 5899 5899 5898 5897 5896 5895 5894 5893 5892 5891 5890 5889 5888 5888 5887 5887 5886 5886 5886 5886 5885 5885 5885 5885 5885 5885 5885 5885 5885 5885 5885 5885 5884 5884 5883 5883 5883 5882 5882 5881 5881
5901 5901 5901 5902 5901 5901 5901 5900 5900 5899 5899 5898 5897 5896 5895 5894 5894 5892 5891 5890 5889 5889 5888 5887 5886 5886 5886 5886 5885 5885 5885 5885 5885 5884 5885 5885 5884 5884 5884 5884 5884 5883 5883 5883 5882 5882 5881 5881 5880
5900 5901 5901 5901 5901 5901 5901 5900 5900 5900 5899 5899 5898 5897 5896 5895 5894 5893 5892 5892 5891 5890 5888 5887 5886 5886 5886 5885 5885 5885 5884 5884 5884 5884 5884 5884 5884 5884 5884 5883 5883 5883 5882 5882 5881 5881 5880 5880 5879
5899 5900 5900 5901 5901 5901 5901 5901 5900 5900 5900 5899 5898 5897 5896 5896 5895 5894 5893 5892 5891 5890 5889 5888 5887 5886 5886 5885 5885 5884 5884 5884 5884 5884 5884 5884 5884 5884 5883 5883 5882 5882 5881 5881 5880 5880 5879 5878 5877
5898 5899 5900 5900 5900 5900 5901 5901 5900 5900 5900 5899 5898 5898 5897 5896 5895 5895 5894 5893 5892 5891 5890 5889 5888 5887 5886 5885 5885 5884 5884 5884 5883 5883 5883 5883 5882 5883 5883 5882 5881 5880 5880 5879 5879 5878 5877 5877 5876
5896 5898 5898 5899 5899 5899 5900 5900 5900 5900 5899 5899 5899 5898 5897 5896 5895 5895 5894 5893 5892 5891 5890 5889 5888 5887 5886 5885 5885 5884 5884 5883 5883 5883 5882 5882 5882 5882 5881 5880 5879 5879 5878 5878 5877 5876 5875 5874 5873
5895 5896 5897 5897 5898 5898 5899 5899 5900 5899 5899 5899 5898 5898 5897 5896 5896 5895 5894 5893 5892 5891 5890 5889 5888 5887 5886 5885 5884 5884 5883 5883 5882 5882 5881 5881 5880 5880 5879 5878 5878 5877 5877 5876 5875 5874 5873 5872 5871
5893 5894 5894 5895 5896 5897 5897 5898 5898 5898 5897 5898 5897 5897 5897 5896 5895 5894 5894 5893 5892 5891 5890 5889 5888 5887 5886 5885 5884 5883 5882 5882 5881 5881 5880 5880 5879 5878 5877 5877 5876 5875 5875 5874 5873 5871 5870 5869 5868
5890 5892 5893 5893 5893 5894 5896 5895 5897 5897 5897 5896 5896 5896 5895 5895 5894 5894 5893 5892 5891 5890 5889 5888 5887 5886 5885 5884 5883 5882 5882 5881 5881 5880 5879 5878 5878 5877 5875 5874 5874 5873 5872 5871 5870 5868 5867 5866 5865
5887 5889 5890 5891 5892 5893 5893 5893 5895 5895 5895 5895 5894 5894 5894 5893 5893 5893 5892 5891 5890 5889 5888 5887 5886 5885 5884 5883 5882 5881 5880 5880 5879 5878 5877 5876 5876 5875 5873 5872 5871 5870 5869 5868 5866 5865 5864 5862 5861
5883 5885 5887 5888 5888 5890 5891 5892 5893 5893 5893 5893 5893 5892 5892 5892 5892 5891 5890 5890 5889 5888 5888 5886 5885 5884 5883 5882 5881 5880 5879 5878 5877 5876 5875 5874 5873 5872 5871 5870 5868 5867 5866 5864 5863 5861 5860 5859 5857
5880 5881 5883 5884 5885 5886 5888 5889 5891 5890 5891 5891 5891 5890 5890 5890 5889 5889 5888 5888 5888 5887 5886 5885 5883 5882 5881 5880 5879 5878 5877 5876 5875 5874 5873 5872 5870 5869 5868 5866 5865 5863 5862 5860 5859 5857 5856 5855 5853
5877 5879 5879 5881 5882 5884 5885 5889 5888 5888 5888 5888 5888 5888 5888 5888 5887 5887 5887 5886 5885 5885 5884 5883 5882 5881 5879 5878 5877 5876 5875 5874 5872 5871 5870 5869 5867 5866 5864 5863 5861 5859 5858 5856 5854 5853 5851 5850 5848
5873 5875 5876 5878 5879 5880 5882 5886 5884 5885 5885 5885 5886 5886 5885 5885 5885 5885 5884 5884 5883 5882 5881 5880 5879 5878 5877 5876 5874 5873 5872 5871 5869 5868 5866 5865 5864 5862 5860 5859 5857 5855 5853 5852 5850 5848 5846 5845 5843